User: anonymous   Login
Location: Unspecified
(0.0000°N, 0.0000°E)
Time: 05:47:34
(UTC+00:00)
Language:

SBIRS GEO 1 (USA 230) - Orbit

View from above orbital plane
View from above orbital plane
View from above satellite
View from above satellite

Ground track
Ground track

The orbit data is extracted from the following two-line orbital elements,

1 37481U 11019A   15146.94933613 0.00000000  00000-0  00000-0 0    03
2 37481   4.6719 319.9859 0003870 320.8807  39.0942  1.00270000    09
Epoch (UTC): 26 May 2015 22:47:02
Eccentricity: 0.0003870
inclination: 4.6719°
perigee height: 35770 km
apogee height: 35803 km
right ascension of ascending node: 319.9859°
argument of perigee: 320.8807°
revolutions per day: 1.00270000
mean anomaly at epoch: 39.0942°
orbit number at epoch: 0

The dashed part of the orbit path shows where the satellite is in the earth's shadow,  

DLR